User: anonymous   Login
Location: Kitchener
(43.4500°N, 80.5000°W)
Time: 23:40:48
(UTC-05:00)
Language:

ATLAS 5 CENTAUR R/B - Orbit

View from above orbital plane
View from above orbital plane
View from above satellite
View from above satellite

Ground track
Ground track

The orbit data is extracted from the following two-line orbital elements,

1 31702U 07027B   15059.17921671 0.00000300  00000-0  12472-3 0    08
2 31702  63.3770 148.7087 0175000 353.6408   6.3592 14.18302399    03
Epoch (UTC): 28 February 2015 04:18:04
Eccentricity: 0.0175000
inclination: 63.3770°
perigee height: 705 km
apogee height: 957 km
right ascension of ascending node: 148.7087°
argument of perigee: 353.6408°
revolutions per day: 14.18302399
mean anomaly at epoch: 6.3592°
orbit number at epoch: 0

The dashed part of the orbit path shows where the satellite is in the earth's shadow,  

DLR